Time,TemperatureF,DewpointF,PressureIn,WindDirection,WindDirectionDegrees,WindSpeedMPH,WindSpeedGustMPH,Humidity,HourlyPrecipIn,Conditions,Clouds,dailyrainin,SoftwareType,DateUTC
2013-01-29 00:03:00,48.4,47.9,30.06,SW,219,2.0,2.0,98,0.00,,,0.00,Wunderground v.1.15,2013-01-29 05:03:00,
2013-01-29 00:04:00,48.4,47.9,30.06,SW,219,2.0,2.0,98,0.00,,,0.00,Wunderground v.1.15,2013-01-29 05:04:00,
2013-01-29 00:06:00,48.4,47.9,30.06,SW,219,1.0,2.0,98,0.00,,,0.00,Wunderground v.1.15,2013-01-29 05:06:00,
2013-01-29 00:11:00,48.4,47.9,30.06,SW,219,0.0,0.0,98,0.00,,,0.00,Wunderground v.1.15,2013-01-29 05:11:00,
2013-01-29 00:15:00,48.4,47.9,30.05,SSW,208,0.0,0.0,98,0.00,,,0.00,Wunderground v.1.15,2013-01-29 05:15:00,
2013-01-29 00:21:00,48.3,47.8,30.05,SSW,208,0.0,0.0,98,0.00,,,0.00,Wunderground v.1.15,2013-01-29 05:21:00,
2013-01-29 00:26:00,48.3,47.8,30.06,SSW,208,0.0,0.0,98,0.00,,,0.00,Wunderground v.1.15,2013-01-29 05:26:00,
2013-01-29 00:31:00,48.3,47.8,30.05,SSW,203,0.0,0.0,98,0.00,,,0.00,Wunderground v.1.15,2013-01-29 05:31:00,
2013-01-29 00:36:00,48.3,47.8,30.06,SSW,204,0.0,0.0,98,0.00,,,0.00,Wunderground v.1.15,2013-01-29 05:36:00,
2013-01-29 00:42:00,48.4,47.9,30.05,SSW,197,0.0,4.0,98,0.00,,,0.00,Wunderground v.1.15,2013-01-29 05:42:00,
2013-01-29 00:47:00,48.3,47.8,30.05,SSW,196,1.0,4.0,98,0.00,,,0.00,Wunderground v.1.15,2013-01-29 05:47:00,
2013-01-29 00:52:00,48.3,47.8,30.05,SSW,196,1.0,1.0,98,0.00,,,0.00,Wunderground v.1.15,2013-01-29 05:52:00,
2013-01-29 00:58:00,48.4,47.9,30.05,SSW,204,1.0,2.0,98,0.00,,,0.00,Wunderground v.1.15,2013-01-29 05:58:00,
2013-01-29 01:03:00,48.5,48.0,30.05,SSW,197,1.0,2.0,98,0.00,,,0.00,Wunderground v.1.15,2013-01-29 06:03:00,
2013-01-29 01:08:00,48.4,47.9,30.05,SSW,201,1.0,3.0,98,0.00,,,0.00,Wunderground v.1.15,2013-01-29 06:08:00,
2013-01-29 01:14:00,48.5,48.0,30.05,SSW,204,0.0,1.0,98,0.00,,,0.00,Wunderground v.1.15,2013-01-29 06:14:00,
2013-01-29 01:19:00,48.5,48.0,30.05,SSW,195,0.0,2.0,98,0.00,,,0.00,Wunderground v.1.15,2013-01-29 06:19:00,
2013-01-29 01:24:00,48.7,48.2,30.04,SSW,207,1.0,5.0,98,0.00,,,0.01,Wunderground v.1.15,2013-01-29 06:24:00,
2013-01-29 01:29:00,48.7,48.2,30.04,SSW,205,1.0,5.0,98,0.00,,,0.01,Wunderground v.1.15,2013-01-29 06:29:00,
2013-01-29 01:35:00,48.7,48.2,30.04,SSW,200,2.0,5.0,98,0.00,,,0.01,Wunderground v.1.15,2013-01-29 06:35:00,
2013-01-29 01:40:00,48.7,48.2,30.04,SSW,198,1.0,1.0,98,0.00,,,0.01,Wunderground v.1.15,2013-01-29 06:40:00,
2013-01-29 01:45:00,48.7,48.2,30.04,SSW,198,1.0,3.0,98,0.00,,,0.01,Wunderground v.1.15,2013-01-29 06:45:00,
2013-01-29 01:50:00,48.8,48.3,30.04,SSW,202,2.0,2.0,98,0.00,,,0.01,Wunderground v.1.15,2013-01-29 06:50:00,
2013-01-29 01:56:00,48.8,48.3,30.04,SSW,198,2.0,4.0,98,0.00,,,0.01,Wunderground v.1.15,2013-01-29 06:56:00,
2013-01-29 02:01:00,49.0,48.5,30.04,SSW,202,3.0,3.0,98,0.00,,,0.01,Wunderground v.1.15,2013-01-29 07:01:00,
2013-01-29 02:06:00,48.9,48.4,30.04,SSW,202,2.0,3.0,98,0.00,,,0.01,Wunderground v.1.15,2013-01-29 07:06:00,
2013-01-29 02:11:00,48.9,48.4,30.04,SSW,193,1.0,1.0,98,0.00,,,0.01,Wunderground v.1.15,2013-01-29 07:11:00,
2013-01-29 02:17:00,48.9,48.4,30.03,South,186,1.0,1.0,98,0.00,,,0.01,Wunderground v.1.15,2013-01-29 07:17:00,
2013-01-29 02:23:00,49.0,48.5,30.03,SSW,202,2.0,5.0,98,0.00,,,0.01,Wunderground v.1.15,2013-01-29 07:23:00,
2013-01-29 02:28:00,49.1,48.6,30.04,South,183,3.0,5.0,98,0.00,,,0.01,Wunderground v.1.15,2013-01-29 07:28:00,
2013-01-29 02:33:00,49.2,48.7,30.03,South,174,3.0,5.0,98,0.00,,,0.01,Wunderground v.1.15,2013-01-29 07:33:00,
2013-01-29 02:39:00,49.2,48.7,30.03,SSW,205,2.0,6.0,98,0.00,,,0.01,Wunderground v.1.15,2013-01-29 07:39:00,
2013-01-29 02:44:00,49.2,48.7,30.03,South,190,2.0,4.0,98,0.00,,,0.01,Wunderground v.1.15,2013-01-29 07:44:00,
2013-01-29 02:49:00,49.3,48.8,30.04,SSW,211,1.0,4.0,98,0.00,,,0.01,Wunderground v.1.15,2013-01-29 07:49:00,
2013-01-29 02:54:00,49.4,48.9,30.03,SSW,204,2.0,6.0,98,0.00,,,0.01,Wunderground v.1.15,2013-01-29 07:54:00,
2013-01-29 03:00:00,49.6,49.1,30.04,SSW,206,3.0,3.0,98,0.00,,,0.01,Wunderground v.1.15,2013-01-29 08:00:00,
2013-01-29 03:05:00,49.6,49.1,30.03,South,183,3.0,3.0,98,0.00,,,0.01,Wunderground v.1.15,2013-01-29 08:05:00,
2013-01-29 03:10:00,49.6,49.1,30.04,SW,219,2.0,2.0,98,0.00,,,0.01,Wunderground v.1.15,2013-01-29 08:10:00,
2013-01-29 03:15:00,49.6,49.1,30.03,SW,224,2.0,4.0,98,0.00,,,0.01,Wunderground v.1.15,2013-01-29 08:15:00,
2013-01-29 03:21:00,49.6,49.1,30.03,SW,214,2.0,2.0,98,0.00,,,0.01,Wunderground v.1.15,2013-01-29 08:21:00,
2013-01-29 03:26:00,49.6,49.1,30.03,SSW,211,1.0,4.0,98,0.00,,,0.01,Wunderground v.1.15,2013-01-29 08:26:00,
2013-01-29 03:31:00,49.6,49.1,30.03,SSE,153,1.0,3.0,98,0.00,,,0.01,Wunderground v.1.15,2013-01-29 08:31:00,
2013-01-29 03:37:00,49.7,49.2,30.03,SSW,209,1.0,4.0,98,0.00,,,0.01,Wunderground v.1.15,2013-01-29 08:37:00,
2013-01-29 03:42:00,49.7,49.2,30.03,SSW,208,1.0,7.0,98,0.00,,,0.01,Wunderground v.1.15,2013-01-29 08:42:00,
2013-01-29 03:47:00,49.7,49.2,30.02,South,179,2.0,7.0,98,0.00,,,0.01,Wunderground v.1.15,2013-01-29 08:47:00,
2013-01-29 03:52:00,49.7,49.2,30.02,SSW,200,2.0,3.0,98,0.00,,,0.01,Wunderground v.1.15,2013-01-29 08:52:00,
2013-01-29 03:58:00,49.6,49.1,30.02,South,180,2.0,3.0,98,0.00,,,0.01,Wunderground v.1.15,2013-01-29 08:58:00,
2013-01-29 04:03:00,49.7,49.2,30.02,SSW,201,1.0,3.0,98,0.00,,,0.01,Wunderground v.1.15,2013-01-29 09:03:00,
2013-01-29 04:09:00,49.7,49.2,30.02,SSW,213,1.0,7.0,98,0.00,,,0.01,Wunderground v.1.15,2013-01-29 09:09:00,
2013-01-29 04:14:00,49.8,49.3,30.02,SW,215,2.0,4.0,98,0.00,,,0.01,Wunderground v.1.15,2013-01-29 09:14:00,
2013-01-29 04:19:00,49.9,49.4,30.01,SSW,209,2.0,7.0,98,0.00,,,0.01,Wunderground v.1.15,2013-01-29 09:19:00,
2013-01-29 04:24:00,50.0,49.5,30.01,SSW,198,3.0,7.0,98,0.00,,,0.01,Wunderground v.1.15,2013-01-29 09:24:00,
2013-01-29 04:30:00,50.0,49.5,30.01,SSW,196,4.0,4.0,98,0.00,,,0.01,Wunderground v.1.15,2013-01-29 09:30:00,
2013-01-29 04:35:00,50.0,49.5,30.00,SSW,210,3.0,7.0,98,0.00,,,0.01,Wunderground v.1.15,2013-01-29 09:35:00,
2013-01-29 04:40:00,50.0,49.5,30.00,SSW,199,2.0,2.0,98,0.00,,,0.01,Wunderground v.1.15,2013-01-29 09:40:00,
2013-01-29 04:46:00,50.0,49.5,30.00,South,184,2.0,6.0,98,0.00,,,0.01,Wunderground v.1.15,2013-01-29 09:46:00,
2013-01-29 04:52:00,50.1,49.8,30.00,South,180,3.0,5.0,99,0.00,,,0.01,Wunderground v.1.15,2013-01-29 09:52:00,
2013-01-29 04:57:00,50.1,49.8,30.00,SSW,198,2.0,6.0,99,0.00,,,0.01,Wunderground v.1.15,2013-01-29 09:57:00,
2013-01-29 05:02:00,50.2,49.9,30.00,SSW,200,3.0,7.0,99,0.00,,,0.01,Wunderground v.1.15,2013-01-29 10:02:00,
2013-01-29 05:08:00,50.2,49.9,30.00,South,178,3.0,7.0,99,0.00,,,0.01,Wunderground v.1.15,2013-01-29 10:08:00,
2013-01-29 05:13:00,50.3,50.0,30.00,South,177,2.0,6.0,99,0.00,,,0.01,Wunderground v.1.15,2013-01-29 10:13:00,
2013-01-29 05:18:00,50.2,49.9,29.99,SSW,202,2.0,6.0,99,0.00,,,0.01,Wunderground v.1.15,2013-01-29 10:18:00,
2013-01-29 05:24:00,50.1,49.8,29.99,South,178,1.0,3.0,99,0.00,,,0.01,Wunderground v.1.15,2013-01-29 10:24:00,
2013-01-29 05:29:00,50.2,49.9,29.99,South,190,2.0,9.0,99,0.00,,,0.01,Wunderground v.1.15,2013-01-29 10:29:00,
2013-01-29 05:34:00,50.1,49.8,29.99,SSW,192,2.0,6.0,99,0.00,,,0.01,Wunderground v.1.15,2013-01-29 10:34:00,
2013-01-29 05:39:00,50.1,49.8,29.98,South,186,3.0,8.0,99,0.00,,,0.01,Wunderground v.1.15,2013-01-29 10:39:00,
2013-01-29 05:44:00,50.2,49.9,29.99,South,181,3.0,5.0,99,0.00,,,0.01,Wunderground v.1.15,2013-01-29 10:44:00,
2013-01-29 05:50:00,50.3,50.0,29.99,South,190,4.0,9.0,99,0.00,,,0.01,Wunderground v.1.15,2013-01-29 10:50:00,
2013-01-29 05:55:00,50.3,50.0,29.98,South,188,4.0,9.0,99,0.00,,,0.01,Wunderground v.1.15,2013-01-29 10:55:00,
2013-01-29 06:00:00,50.5,50.0,29.98,SSW,192,4.0,5.0,98,0.00,,,0.01,Wunderground v.1.15,2013-01-29 11:00:00,
2013-01-29 06:06:00,50.5,50.0,29.98,South,177,5.0,9.0,98,0.00,,,0.01,Wunderground v.1.15,2013-01-29 11:06:00,
2013-01-29 06:12:00,50.5,50.0,29.98,SSW,198,5.0,7.0,98,0.00,,,0.01,Wunderground v.1.15,2013-01-29 11:12:00,
2013-01-29 06:17:00,50.6,50.1,29.98,South,186,5.0,12.0,98,0.00,,,0.01,Wunderground v.1.15,2013-01-29 11:17:00,
2013-01-29 06:22:00,50.9,50.6,29.99,South,171,7.0,9.0,99,0.00,,,0.01,Wunderground v.1.15,2013-01-29 11:22:00,
2013-01-29 06:28:00,51.2,50.7,29.98,SSW,200,8.0,12.0,98,0.00,,,0.01,Wunderground v.1.15,2013-01-29 11:28:00,
2013-01-29 06:33:00,51.2,50.7,29.99,SW,229,8.0,8.0,98,0.00,,,0.01,Wunderground v.1.15,2013-01-29 11:33:00,
2013-01-29 06:38:00,51.3,51.0,29.98,SSW,200,7.0,10.0,99,0.00,,,0.01,Wunderground v.1.15,2013-01-29 11:38:00,
2013-01-29 06:44:00,51.4,51.1,29.99,SSW,204,7.0,9.0,99,0.00,,,0.01,Wunderground v.1.15,2013-01-29 11:44:00,
2013-01-29 06:49:00,51.5,51.0,29.99,SSW,200,6.0,9.0,98,0.00,,,0.01,Wunderground v.1.15,2013-01-29 11:49:00,
2013-01-29 06:54:00,51.7,51.2,29.99,SSW,209,5.0,10.0,98,0.00,,,0.01,Wunderground v.1.15,2013-01-29 11:54:00,
2013-01-29 06:59:00,51.8,51.3,29.99,SSW,207,7.0,12.0,98,0.00,,,0.01,Wunderground v.1.15,2013-01-29 11:59:00,
2013-01-29 07:04:00,52.1,51.6,29.99,SW,229,8.0,11.0,98,0.00,,,0.01,Wunderground v.1.15,2013-01-29 12:04:00,
2013-01-29 07:10:00,52.2,51.7,29.99,SSW,201,9.0,9.0,98,0.00,,,0.01,Wunderground v.1.15,2013-01-29 12:10:00,
2013-01-29 07:15:00,52.3,51.8,29.99,South,181,9.0,13.0,98,0.00,,,0.01,Wunderground v.1.15,2013-01-29 12:15:00,
2013-01-29 07:20:00,52.4,51.9,29.99,SSW,205,8.0,8.0,98,0.00,,,0.01,Wunderground v.1.15,2013-01-29 12:20:00,
2013-01-29 07:25:00,52.4,51.6,29.99,SSW,203,7.0,14.0,97,0.00,,,0.01,Wunderground v.1.15,2013-01-29 12:25:00,
2013-01-29 07:31:00,52.5,51.4,29.99,SW,225,8.0,15.0,96,0.00,,,0.01,Wunderground v.1.15,2013-01-29 12:31:00,
2013-01-29 07:36:00,52.7,51.6,29.99,SSW,194,8.0,15.0,96,0.00,,,0.01,Wunderground v.1.15,2013-01-29 12:36:00,
2013-01-29 07:41:00,52.7,51.0,29.99,SW,224,8.0,10.0,94,0.00,,,0.01,Wunderground v.1.15,2013-01-29 12:41:00,
2013-01-29 07:47:00,52.6,50.9,29.99,South,176,8.0,13.0,94,0.00,,,0.01,Wunderground v.1.15,2013-01-29 12:47:00,
2013-01-29 07:53:00,52.5,50.5,29.99,SSW,195,8.0,8.0,93,0.00,,,0.01,Wunderground v.1.15,2013-01-29 12:53:00,
2013-01-29 07:58:00,52.5,50.5,29.99,SSW,207,8.0,10.0,93,0.00,,,0.01,Wunderground v.1.15,2013-01-29 12:58:00,
2013-01-29 08:03:00,52.4,50.4,29.99,SSW,211,8.0,12.0,93,0.00,,,0.01,Wunderground v.1.15,2013-01-29 13:03:00,
2013-01-29 08:09:00,52.6,50.6,29.98,SSW,213,8.0,12.0,93,0.00,,,0.01,Wunderground v.1.15,2013-01-29 13:09:00,
2013-01-29 08:15:00,52.6,50.6,29.98,SW,229,8.0,11.0,93,0.00,,,0.01,Wunderground v.1.15,2013-01-29 13:15:00,
2013-01-29 08:20:00,52.8,50.5,29.99,SSW,192,9.0,9.0,92,0.00,,,0.01,Wunderground v.1.15,2013-01-29 13:20:00,
2013-01-29 08:25:00,52.9,50.6,29.99,South,184,9.0,15.0,92,0.00,,,0.01,Wunderground v.1.15,2013-01-29 13:25:00,
2013-01-29 08:31:00,53.3,50.7,29.98,SSW,202,11.0,11.0,91,0.00,,,0.01,Wunderground v.1.15,2013-01-29 13:31:00,
2013-01-29 08:37:00,53.4,50.8,29.99,SW,227,10.0,13.0,91,0.00,,,0.01,Wunderground v.1.15,2013-01-29 13:37:00,
2013-01-29 08:42:00,53.5,50.9,29.98,SW,225,9.0,20.0,91,0.00,,,0.01,Wunderground v.1.15,2013-01-29 13:42:00,
2013-01-29 08:48:00,53.7,51.1,29.98,SSW,213,10.0,20.0,91,0.00,,,0.01,Wunderground v.1.15,2013-01-29 13:48:00,
2013-01-29 08:53:00,53.8,51.2,29.98,SSW,200,10.0,18.0,91,0.00,,,0.01,Wunderground v.1.15,2013-01-29 13:53:00,
2013-01-29 08:58:00,53.8,51.2,29.98,West,264,11.0,18.0,91,0.00,,,0.01,Wunderground v.1.15,2013-01-29 13:58:00,
2013-01-29 09:03:00,53.8,51.2,29.98,SW,223,10.0,18.0,91,0.00,,,0.01,Wunderground v.1.15,2013-01-29 14:03:00,
2013-01-29 09:09:00,53.8,51.2,29.98,SW,217,10.0,18.0,91,0.00,,,0.01,Wunderground v.1.15,2013-01-29 14:09:00,
2013-01-29 09:14:00,53.8,51.2,29.98,SSW,213,10.0,15.0,91,0.00,,,0.01,Wunderground v.1.15,2013-01-29 14:14:00,
2013-01-29 09:19:00,53.8,51.2,29.98,SSW,209,9.0,15.0,91,0.00,,,0.01,Wunderground v.1.15,2013-01-29 14:19:00,
2013-01-29 09:24:00,53.8,51.2,29.97,SSW,204,8.0,12.0,91,0.00,,,0.01,Wunderground v.1.15,2013-01-29 14:24:00,
2013-01-29 09:30:00,54.0,51.4,29.97,SSW,197,8.0,8.0,91,0.00,,,0.01,Wunderground v.1.15,2013-01-29 14:30:00,
2013-01-29 09:35:00,54.2,51.6,29.98,SSW,205,9.0,9.0,91,0.00,,,0.01,Wunderground v.1.15,2013-01-29 14:35:00,
2013-01-29 09:40:00,54.4,51.8,29.97,WSW,252,8.0,12.0,91,0.00,,,0.01,Wunderground v.1.15,2013-01-29 14:40:00,
2013-01-29 09:46:00,54.6,52.0,29.98,South,191,9.0,12.0,91,0.00,,,0.01,Wunderground v.1.15,2013-01-29 14:46:00,
2013-01-29 09:52:00,54.7,51.8,29.97,SW,219,10.0,15.0,90,0.00,,,0.01,Wunderground v.1.15,2013-01-29 14:52:00,
2013-01-29 09:57:00,54.9,52.0,29.97,SSW,207,10.0,17.0,90,0.00,,,0.01,Wunderground v.1.15,2013-01-29 14:57:00,
2013-01-29 10:02:00,55.0,52.1,29.97,SSW,210,10.0,12.0,90,0.00,,,0.01,Wunderground v.1.15,2013-01-29 15:02:00,
2013-01-29 10:07:00,55.2,52.3,29.97,WSW,238,9.0,14.0,90,0.00,,,0.01,Wunderground v.1.15,2013-01-29 15:07:00,
2013-01-29 10:13:00,55.3,52.4,29.96,SSW,198,10.0,19.0,90,0.00,,,0.01,Wunderground v.1.15,2013-01-29 15:13:00,
2013-01-29 10:18:00,55.4,52.5,29.96,SW,225,9.0,19.0,90,0.00,,,0.01,Wunderground v.1.15,2013-01-29 15:18:00,
2013-01-29 10:23:00,55.5,52.6,29.96,SW,224,9.0,16.0,90,0.00,,,0.01,Wunderground v.1.15,2013-01-29 15:23:00,
2013-01-29 10:28:00,55.7,52.8,29.96,WSW,241,9.0,16.0,90,0.00,,,0.01,Wunderground v.1.15,2013-01-29 15:28:00,
2013-01-29 10:34:00,55.9,53.0,29.96,SSW,200,10.0,20.0,90,0.00,,,0.01,Wunderground v.1.15,2013-01-29 15:34:00,
2013-01-29 10:40:00,56.0,53.1,29.96,SW,216,10.0,11.0,90,0.00,,,0.01,Wunderground v.1.15,2013-01-29 15:40:00,
2013-01-29 10:45:00,56.1,53.2,29.96,SW,222,10.0,16.0,90,0.00,,,0.01,Wunderground v.1.15,2013-01-29 15:45:00,
2013-01-29 10:50:00,56.1,53.2,29.96,SW,236,8.0,12.0,90,0.00,,,0.01,Wunderground v.1.15,2013-01-29 15:50:00,
2013-01-29 10:56:00,56.3,53.4,29.96,SW,218,8.0,12.0,90,0.00,,,0.01,Wunderground v.1.15,2013-01-29 15:56:00,
2013-01-29 11:01:00,56.6,53.7,29.96,SSW,213,9.0,11.0,90,0.00,,,0.01,Wunderground v.1.15,2013-01-29 16:01:00,
2013-01-29 11:06:00,56.8,53.9,29.96,SSW,205,8.0,12.0,90,0.00,,,0.01,Wunderground v.1.15,2013-01-29 16:06:00,
2013-01-29 11:12:00,57.1,54.2,29.96,SSW,210,9.0,12.0,90,0.00,,,0.01,Wunderground v.1.15,2013-01-29 16:12:00,
2013-01-29 11:17:00,57.3,54.1,29.95,SW,223,11.0,13.0,89,0.00,,,0.01,Wunderground v.1.15,2013-01-29 16:17:00,
2013-01-29 11:23:00,57.7,54.5,29.95,SSW,203,12.0,17.0,89,0.00,,,0.01,Wunderground v.1.15,2013-01-29 16:23:00,
2013-01-29 11:29:00,58.2,55.0,29.95,WSW,242,10.0,17.0,89,0.00,,,0.01,Wunderground v.1.15,2013-01-29 16:29:00,
2013-01-29 11:34:00,58.7,55.2,29.95,SSW,202,11.0,11.0,88,0.00,,,0.01,Wunderground v.1.15,2013-01-29 16:34:00,
2013-01-29 11:40:00,59.0,55.1,29.94,SSW,200,11.0,11.0,87,0.00,,,0.01,Wunderground v.1.15,2013-01-29 16:40:00,
2013-01-29 11:45:00,59.3,55.4,29.94,SW,223,10.0,19.0,87,0.00,,,0.01,Wunderground v.1.15,2013-01-29 16:45:00,
2013-01-29 11:50:00,59.3,55.4,29.94,SW,227,10.0,10.0,87,0.00,,,0.01,Wunderground v.1.15,2013-01-29 16:50:00,
2013-01-29 11:55:00,59.2,55.3,29.93,SSW,203,11.0,17.0,87,0.00,,,0.01,Wunderground v.1.15,2013-01-29 16:55:00,
2013-01-29 12:01:00,59.3,55.4,29.93,SW,233,10.0,10.0,87,0.00,,,0.01,Wunderground v.1.15,2013-01-29 17:01:00,
2013-01-29 12:06:00,59.3,55.4,29.93,SW,227,11.0,17.0,87,0.00,,,0.01,Wunderground v.1.15,2013-01-29 17:06:00,
2013-01-29 12:12:00,59.6,55.4,29.92,WSW,238,11.0,18.0,86,0.00,,,0.01,Wunderground v.1.15,2013-01-29 17:12:00,
2013-01-29 12:17:00,59.9,55.7,29.92,SW,227,11.0,18.0,86,0.00,,,0.01,Wunderground v.1.15,2013-01-29 17:17:00,
2013-01-29 12:22:00,60.4,56.2,29.92,SW,234,11.0,21.0,86,0.00,,,0.01,Wunderground v.1.15,2013-01-29 17:22:00,
2013-01-29 12:28:00,60.7,56.2,29.91,SSW,211,11.0,21.0,85,0.00,,,0.01,Wunderground v.1.15,2013-01-29 17:28:00,
2013-01-29 12:33:00,60.7,56.2,29.91,SSW,198,9.0,13.0,85,0.00,,,0.01,Wunderground v.1.15,2013-01-29 17:33:00,
2013-01-29 12:38:00,60.9,56.4,29.91,SSW,202,10.0,20.0,85,0.00,,,0.01,Wunderground v.1.15,2013-01-29 17:38:00,
2013-01-29 12:44:00,61.1,56.6,29.91,SSW,202,8.0,10.0,85,0.00,,,0.01,Wunderground v.1.15,2013-01-29 17:44:00,
2013-01-29 12:49:00,61.2,56.3,29.90,SSW,201,8.0,15.0,84,0.00,,,0.01,Wunderground v.1.15,2013-01-29 17:49:00,
2013-01-29 12:54:00,61.3,56.1,29.90,SW,217,9.0,14.0,83,0.00,,,0.01,Wunderground v.1.15,2013-01-29 17:54:00,
2013-01-29 13:00:00,61.4,56.2,29.90,SSW,198,6.0,6.0,83,0.00,,,0.01,Wunderground v.1.15,2013-01-29 18:00:00,
2013-01-29 13:05:00,61.4,56.2,29.89,SSW,200,6.0,9.0,83,0.00,,,0.01,Wunderground v.1.15,2013-01-29 18:05:00,
2013-01-29 13:10:00,61.5,56.6,29.88,SW,217,6.0,6.0,84,0.00,,,0.01,Wunderground v.1.15,2013-01-29 18:10:00,
2013-01-29 13:15:00,61.8,56.6,29.88,SSW,192,5.0,13.0,83,0.00,,,0.01,Wunderground v.1.15,2013-01-29 18:15:00,
2013-01-29 13:21:00,62.3,56.7,29.88,SSW,198,7.0,15.0,82,0.00,,,0.01,Wunderground v.1.15,2013-01-29 18:21:00,
2013-01-29 13:26:00,62.5,56.6,29.88,SW,226,9.0,15.0,81,0.00,,,0.01,Wunderground v.1.15,2013-01-29 18:26:00,
2013-01-29 13:31:00,62.4,56.5,29.88,South,181,10.0,15.0,81,0.00,,,0.01,Wunderground v.1.15,2013-01-29 18:31:00,
2013-01-29 13:36:00,62.4,56.5,29.87,SW,227,9.0,15.0,81,0.00,,,0.01,Wunderground v.1.15,2013-01-29 18:36:00,
2013-01-29 13:42:00,62.5,56.6,29.87,SSW,210,7.0,10.0,81,0.00,,,0.01,Wunderground v.1.15,2013-01-29 18:42:00,
2013-01-29 13:47:00,62.5,56.2,29.87,SSW,200,7.0,11.0,80,0.00,,,0.01,Wunderground v.1.15,2013-01-29 18:47:00,
2013-01-29 13:52:00,62.6,56.3,29.87,SW,220,8.0,11.0,80,0.00,,,0.01,Wunderground v.1.15,2013-01-29 18:52:00,
2013-01-29 13:58:00,62.7,56.4,29.86,SSW,200,9.0,12.0,80,0.00,,,0.01,Wunderground v.1.15,2013-01-29 18:58:00,
2013-01-29 14:04:00,62.8,56.5,29.86,SW,214,9.0,11.0,80,0.00,,,0.01,Wunderground v.1.15,2013-01-29 19:04:00,
2013-01-29 14:09:00,63.0,56.7,29.86,SSW,213,8.0,12.0,80,0.00,,,0.01,Wunderground v.1.15,2013-01-29 19:09:00,
2013-01-29 14:14:00,63.1,56.8,29.86,WSW,258,7.0,8.0,80,0.00,,,0.01,Wunderground v.1.15,2013-01-29 19:14:00,
2013-01-29 14:20:00,63.2,56.6,29.85,SW,216,7.0,7.0,79,0.00,,,0.01,Wunderground v.1.15,2013-01-29 19:20:00,
2013-01-29 14:26:00,63.6,57.0,29.85,SSW,202,7.0,9.0,79,0.00,,,0.01,Wunderground v.1.15,2013-01-29 19:26:00,
2013-01-29 14:31:00,64.1,57.1,29.85,SW,218,5.0,10.0,78,0.00,,,0.01,Wunderground v.1.15,2013-01-29 19:31:00,
2013-01-29 14:36:00,64.3,57.3,29.85,SW,214,6.0,10.0,78,0.00,,,0.01,Wunderground v.1.15,2013-01-29 19:36:00,
2013-01-29 14:42:00,64.7,57.7,29.85,SSW,207,5.0,7.0,78,0.00,,,0.01,Wunderground v.1.15,2013-01-29 19:42:00,
2013-01-29 14:48:00,65.0,57.6,29.84,SSW,201,5.0,10.0,77,0.00,,,0.01,Wunderground v.1.15,2013-01-29 19:48:00,
2013-01-29 14:53:00,65.2,57.4,29.84,SSW,197,5.0,9.0,76,0.00,,,0.01,Wunderground v.1.15,2013-01-29 19:53:00,
2013-01-29 14:58:00,65.5,57.7,29.85,SW,220,5.0,13.0,76,0.00,,,0.01,Wunderground v.1.15,2013-01-29 19:58:00,
2013-01-29 15:04:00,66.1,57.2,29.85,SSW,213,7.0,24.0,73,0.00,,,0.01,Wunderground v.1.15,2013-01-29 20:04:00,
2013-01-29 15:09:00,66.5,57.6,29.84,West,261,7.0,24.0,73,0.00,,,0.01,Wunderground v.1.15,2013-01-29 20:09:00,
2013-01-29 15:10:00,66.5,57.2,29.84,SSW,200,7.0,7.0,72,0.00,,,0.01,Wunderground v.1.15,2013-01-29 20:10:00,
2013-01-29 15:15:00,66.7,57.0,29.83,SW,222,6.0,14.0,71,0.00,,,0.01,Wunderground v.1.15,2013-01-29 20:15:00,
2013-01-29 15:20:00,66.5,57.2,29.83,South,179,7.0,7.0,72,0.00,,,0.01,Wunderground v.1.15,2013-01-29 20:20:00,
2013-01-29 15:26:00,66.0,56.7,29.83,SW,217,8.0,12.0,72,0.00,,,0.01,Wunderground v.1.15,2013-01-29 20:26:00,
2013-01-29 15:31:00,66.3,57.4,29.83,SSW,210,6.0,9.0,73,0.00,,,0.01,Wunderground v.1.15,2013-01-29 20:31:00,
2013-01-29 15:36:00,66.7,57.4,29.83,South,186,5.0,9.0,72,0.00,,,0.01,Wunderground v.1.15,2013-01-29 20:36:00,
2013-01-29 15:42:00,66.5,57.2,29.83,SW,217,6.0,6.0,72,0.00,,,0.01,Wunderground v.1.15,2013-01-29 20:42:00,
2013-01-29 15:47:00,66.1,56.8,29.83,SW,231,5.0,10.0,72,0.00,,,0.01,Wunderground v.1.15,2013-01-29 20:47:00,
2013-01-29 15:52:00,65.7,56.8,29.83,SW,228,3.0,6.0,73,0.00,,,0.01,Wunderground v.1.15,2013-01-29 20:52:00,
2013-01-29 15:57:00,65.4,56.9,29.83,SW,216,2.0,9.0,74,0.00,,,0.01,Wunderground v.1.15,2013-01-29 20:57:00,
2013-01-29 16:03:00,65.4,56.9,29.83,SW,219,1.0,2.0,74,0.00,,,0.01,Wunderground v.1.15,2013-01-29 21:03:00,
2013-01-29 16:08:00,65.4,56.9,29.83,SW,221,1.0,5.0,74,0.00,,,0.01,Wunderground v.1.15,2013-01-29 21:08:00,
2013-01-29 16:13:00,65.2,57.1,29.82,SW,219,2.0,4.0,75,0.00,,,0.01,Wunderground v.1.15,2013-01-29 21:13:00,
2013-01-29 16:19:00,65.1,57.0,29.82,WSW,241,2.0,4.0,75,0.00,,,0.01,Wunderground v.1.15,2013-01-29 21:19:00,
2013-01-29 16:24:00,65.2,57.1,29.82,SW,221,3.0,10.0,75,0.00,,,0.01,Wunderground v.1.15,2013-01-29 21:24:00,
2013-01-29 16:29:00,65.2,57.1,29.82,SSW,212,5.0,10.0,75,0.00,,,0.01,Wunderground v.1.15,2013-01-29 21:29:00,
2013-01-29 16:35:00,64.9,57.2,29.82,SW,229,4.0,6.0,76,0.00,,,0.01,Wunderground v.1.15,2013-01-29 21:35:00,
2013-01-29 16:40:00,64.9,57.2,29.81,SSW,203,4.0,6.0,76,0.00,,,0.01,Wunderground v.1.15,2013-01-29 21:40:00,
2013-01-29 16:45:00,64.8,56.7,29.81,SSW,213,6.0,10.0,75,0.00,,,0.01,Wunderground v.1.15,2013-01-29 21:45:00,
2013-01-29 16:50:00,64.6,56.5,29.81,SSW,208,6.0,6.0,75,0.00,,,0.01,Wunderground v.1.15,2013-01-29 21:50:00,
2013-01-29 16:56:00,64.5,56.4,29.81,SSW,203,4.0,6.0,75,0.00,,,0.01,Wunderground v.1.15,2013-01-29 21:56:00,
2013-01-29 17:01:00,64.3,56.2,29.81,SSW,209,4.0,7.0,75,0.00,,,0.01,Wunderground v.1.15,2013-01-29 22:01:00,
2013-01-29 17:06:00,64.0,55.9,29.80,SW,224,6.0,11.0,75,0.00,,,0.01,Wunderground v.1.15,2013-01-29 22:06:00,
2013-01-29 17:12:00,63.7,56.0,29.80,SW,215,5.0,6.0,76,0.00,,,0.01,Wunderground v.1.15,2013-01-29 22:12:00,
2013-01-29 17:17:00,63.4,55.7,29.80,SSW,213,3.0,6.0,76,0.00,,,0.01,Wunderground v.1.15,2013-01-29 22:17:00,
2013-01-29 17:22:00,63.2,55.9,29.81,SSW,207,3.0,3.0,77,0.00,,,0.01,Wunderground v.1.15,2013-01-29 22:22:00,
2013-01-29 17:28:00,63.1,55.8,29.80,SSW,209,3.0,6.0,77,0.00,,,0.01,Wunderground v.1.15,2013-01-29 22:28:00,
2013-01-29 17:33:00,62.9,55.6,29.80,SSW,199,3.0,6.0,77,0.00,,,0.01,Wunderground v.1.15,2013-01-29 22:33:00,
2013-01-29 17:38:00,62.7,55.4,29.80,South,190,3.0,6.0,77,0.00,,,0.01,Wunderground v.1.15,2013-01-29 22:38:00,
2013-01-29 17:43:00,62.5,55.2,29.80,South,182,3.0,5.0,77,0.00,,,0.01,Wunderground v.1.15,2013-01-29 22:43:00,
2013-01-29 17:49:00,62.3,55.0,29.79,SSW,195,3.0,7.0,77,0.00,,,0.01,Wunderground v.1.15,2013-01-29 22:49:00,
2013-01-29 17:54:00,62.2,54.9,29.79,South,184,3.0,3.0,77,0.00,,,0.01,Wunderground v.1.15,2013-01-29 22:54:00,
2013-01-29 18:00:00,62.0,54.7,29.79,South,181,2.0,2.0,77,0.00,,,0.01,Wunderground v.1.15,2013-01-29 23:00:00,
2013-01-29 18:05:00,61.8,54.9,29.79,South,182,2.0,4.0,78,0.00,,,0.01,Wunderground v.1.15,2013-01-29 23:05:00,
2013-01-29 18:10:00,61.5,54.6,29.79,SSE,157,2.0,2.0,78,0.00,,,0.01,Wunderground v.1.15,2013-01-29 23:10:00,
2013-01-29 18:16:00,60.9,54.0,29.79,SSE,167,2.0,6.0,78,0.00,,,0.01,Wunderground v.1.15,2013-01-29 23:16:00,
2013-01-29 18:21:00,60.6,54.0,29.80,South,173,3.0,5.0,79,0.00,,,0.01,Wunderground v.1.15,2013-01-29 23:21:00,
2013-01-29 18:26:00,61.0,54.1,29.80,South,178,3.0,5.0,78,0.00,,,0.01,Wunderground v.1.15,2013-01-29 23:26:00,
2013-01-29 18:32:00,61.1,54.2,29.79,SSE,159,3.0,4.0,78,0.00,,,0.01,Wunderground v.1.15,2013-01-29 23:32:00,
2013-01-29 18:38:00,61.0,53.7,29.79,South,173,2.0,5.0,77,0.00,,,0.01,Wunderground v.1.15,2013-01-29 23:38:00,
2013-01-29 18:43:00,60.8,53.5,29.78,SSE,154,3.0,5.0,77,0.00,,,0.01,Wunderground v.1.15,2013-01-29 23:43:00,
2013-01-29 18:49:00,60.7,53.4,29.78,SSE,157,4.0,6.0,77,0.00,,,0.01,Wunderground v.1.15,2013-01-29 23:49:00,
2013-01-29 18:55:00,60.6,53.3,29.78,SSE,162,5.0,7.0,77,0.00,,,0.01,Wunderground v.1.15,2013-01-29 23:55:00,
2013-01-29 19:00:00,60.5,53.3,29.77,SSE,161,5.0,5.0,77,0.00,,,0.01,Wunderground v.1.15,2013-01-30 00:00:00,
2013-01-29 19:05:00,60.6,53.3,29.77,SE,136,5.0,6.0,77,0.00,,,0.01,Wunderground v.1.15,2013-01-30 00:05:00,
2013-01-29 19:11:00,60.8,53.5,29.77,South,190,6.0,6.0,77,0.00,,,0.01,Wunderground v.1.15,2013-01-30 00:11:00,
2013-01-29 19:16:00,60.9,53.6,29.77,South,174,6.0,14.0,77,0.00,,,0.01,Wunderground v.1.15,2013-01-30 00:16:00,
2013-01-29 19:21:00,61.2,53.9,29.77,SE,146,7.0,7.0,77,0.00,,,0.01,Wunderground v.1.15,2013-01-30 00:21:00,
2013-01-29 19:26:00,61.3,54.0,29.77,SSE,167,7.0,10.0,77,0.00,,,0.01,Wunderground v.1.15,2013-01-30 00:26:00,
2013-01-29 19:32:00,61.3,54.0,29.77,SSE,163,7.0,7.0,77,0.00,,,0.01,Wunderground v.1.15,2013-01-30 00:32:00,
2013-01-29 19:37:00,61.1,53.8,29.76,South,169,7.0,9.0,77,0.00,,,0.01,Wunderground v.1.15,2013-01-30 00:37:00,
2013-01-29 19:43:00,60.8,53.5,29.76,South,182,6.0,9.0,77,0.00,,,0.01,Wunderground v.1.15,2013-01-30 00:43:00,
2013-01-29 19:49:00,60.7,53.8,29.76,SSE,163,5.0,10.0,78,0.00,,,0.01,Wunderground v.1.15,2013-01-30 00:49:00,
2013-01-29 19:54:00,60.6,53.7,29.77,South,176,5.0,6.0,78,0.00,,,0.01,Wunderground v.1.15,2013-01-30 00:54:00,
2013-01-29 19:59:00,60.5,53.6,29.76,SSE,165,5.0,10.0,78,0.00,,,0.01,Wunderground v.1.15,2013-01-30 00:59:00,
2013-01-29 20:05:00,60.3,53.4,29.77,SSW,197,5.0,7.0,78,0.00,,,0.01,Wunderground v.1.15,2013-01-30 01:05:00,
2013-01-29 20:10:00,60.2,53.3,29.76,SSE,159,5.0,5.0,78,0.00,,,0.01,Wunderground v.1.15,2013-01-30 01:10:00,
2013-01-29 20:15:00,60.0,53.1,29.77,SSE,159,5.0,7.0,78,0.00,,,0.01,Wunderground v.1.15,2013-01-30 01:15:00,
2013-01-29 20:20:00,60.0,53.5,29.77,South,182,5.0,13.0,79,0.00,,,0.01,Wunderground v.1.15,2013-01-30 01:20:00,
2013-01-29 20:25:00,60.3,53.8,29.77,South,177,6.0,13.0,79,0.00,,,0.01,Wunderground v.1.15,2013-01-30 01:25:00,
2013-01-29 20:31:00,60.8,53.9,29.76,South,175,6.0,11.0,78,0.00,,,0.01,Wunderground v.1.15,2013-01-30 01:31:00,
2013-01-29 20:36:00,61.1,54.2,29.76,South,176,7.0,13.0,78,0.00,,,0.01,Wunderground v.1.15,2013-01-30 01:36:00,
2013-01-29 20:41:00,61.8,54.5,29.76,South,173,8.0,10.0,77,0.00,,,0.01,Wunderground v.1.15,2013-01-30 01:41:00,
2013-01-29 20:47:00,61.9,54.6,29.75,SE,134,8.0,14.0,77,0.00,,,0.01,Wunderground v.1.15,2013-01-30 01:47:00,
2013-01-29 20:52:00,62.0,54.7,29.74,SE,139,8.0,10.0,77,0.00,,,0.01,Wunderground v.1.15,2013-01-30 01:52:00,
2013-01-29 20:57:00,61.9,54.6,29.74,South,184,9.0,14.0,77,0.00,,,0.01,Wunderground v.1.15,2013-01-30 01:57:00,
2013-01-29 21:02:00,61.6,54.7,29.74,South,180,8.0,10.0,78,0.00,,,0.01,Wunderground v.1.15,2013-01-30 02:02:00,
2013-01-29 21:08:00,61.4,54.8,29.74,SSE,150,7.0,11.0,79,0.00,,,0.01,Wunderground v.1.15,2013-01-30 02:08:00,
2013-01-29 21:13:00,61.5,54.6,29.74,SSE,165,8.0,9.0,78,0.00,,,0.01,Wunderground v.1.15,2013-01-30 02:13:00,
2013-01-29 21:18:00,61.6,55.0,29.73,SSE,162,8.0,9.0,79,0.00,,,0.01,Wunderground v.1.15,2013-01-30 02:18:00,
2013-01-29 21:24:00,61.5,54.9,29.73,SE,142,7.0,12.0,79,0.00,,,0.01,Wunderground v.1.15,2013-01-30 02:24:00,
2013-01-29 21:29:00,61.8,55.2,29.73,South,179,8.0,12.0,79,0.00,,,0.01,Wunderground v.1.15,2013-01-30 02:29:00,
2013-01-29 21:34:00,61.8,55.2,29.73,South,188,9.0,14.0,79,0.00,,,0.01,Wunderground v.1.15,2013-01-30 02:34:00,
2013-01-29 21:39:00,62.0,55.4,29.72,SSE,167,9.0,14.0,79,0.00,,,0.01,Wunderground v.1.15,2013-01-30 02:39:00,
2013-01-29 21:45:00,62.2,55.6,29.72,SSE,150,10.0,19.0,79,0.00,,,0.01,Wunderground v.1.15,2013-01-30 02:45:00,
2013-01-29 21:50:00,62.4,55.8,29.72,SSW,196,11.0,11.0,79,0.00,,,0.01,Wunderground v.1.15,2013-01-30 02:50:00,
2013-01-29 21:55:00,62.3,55.7,29.72,SSW,200,11.0,13.0,79,0.00,,,0.01,Wunderground v.1.15,2013-01-30 02:55:00,
2013-01-29 22:00:00,62.3,56.0,29.71,SSW,194,10.0,16.0,80,0.00,,,0.01,Wunderground v.1.15,2013-01-30 03:00:00,
2013-01-29 22:06:00,62.3,56.0,29.71,South,183,11.0,20.0,80,0.00,,,0.01,Wunderground v.1.15,2013-01-30 03:06:00,
2013-01-29 22:11:00,62.2,56.0,29.71,South,186,11.0,14.0,80,0.00,,,0.01,Wunderground v.1.15,2013-01-30 03:11:00,
2013-01-29 22:16:00,62.1,55.9,29.70,SSE,165,10.0,14.0,80,0.00,,,0.01,Wunderground v.1.15,2013-01-30 03:16:00,
2013-01-29 22:21:00,62.1,56.2,29.70,South,186,10.0,16.0,81,0.00,,,0.01,Wunderground v.1.15,2013-01-30 03:21:00,
2013-01-29 22:27:00,61.9,56.0,29.70,SSE,155,9.0,16.0,81,0.00,,,0.01,Wunderground v.1.15,2013-01-30 03:27:00,
2013-01-29 22:32:00,61.9,56.0,29.70,South,189,9.0,11.0,81,0.00,,,0.01,Wunderground v.1.15,2013-01-30 03:32:00,
2013-01-29 22:37:00,61.9,56.3,29.69,SSW,205,9.0,14.0,82,0.00,,,0.01,Wunderground v.1.15,2013-01-30 03:37:00,
2013-01-29 22:42:00,61.9,56.3,29.68,SSE,155,10.0,17.0,82,0.00,,,0.01,Wunderground v.1.15,2013-01-30 03:42:00,
2013-01-29 22:48:00,61.8,56.2,29.70,SSW,195,10.0,17.0,82,0.00,,,0.01,Wunderground v.1.15,2013-01-30 03:48:00,
2013-01-29 22:53:00,61.7,56.1,29.69,SSE,168,10.0,15.0,82,0.00,,,0.01,Wunderground v.1.15,2013-01-30 03:53:00,
2013-01-29 22:58:00,61.6,56.0,29.67,SSE,155,10.0,15.0,82,0.00,,,0.01,Wunderground v.1.15,2013-01-30 03:58:00,
2013-01-29 23:03:00,61.5,56.3,29.67,SSE,153,10.0,15.0,83,0.00,,,0.01,Wunderground v.1.15,2013-01-30 04:03:00,
2013-01-29 23:09:00,61.6,56.4,29.67,South,175,9.0,19.0,83,0.00,,,0.01,Wunderground v.1.15,2013-01-30 04:09:00,
2013-01-29 23:14:00,61.8,56.6,29.67,South,169,10.0,17.0,83,0.00,,,0.01,Wunderground v.1.15,2013-01-30 04:14:00,
2013-01-29 23:19:00,61.7,56.5,29.66,South,169,9.0,17.0,83,0.00,,,0.01,Wunderground v.1.15,2013-01-30 04:19:00,
2013-01-29 23:24:00,61.7,56.5,29.66,South,186,8.0,11.0,83,0.00,,,0.01,Wunderground v.1.15,2013-01-30 04:24:00,
2013-01-29 23:30:00,61.8,56.6,29.65,SSE,153,9.0,9.0,83,0.00,,,0.01,Wunderground v.1.15,2013-01-30 04:30:00,
2013-01-29 23:35:00,61.9,56.7,29.65,SSW,194,10.0,15.0,83,0.00,,,0.01,Wunderground v.1.15,2013-01-30 04:35:00,
2013-01-29 23:40:00,62.0,56.8,29.65,South,186,10.0,18.0,83,0.00,,,0.01,Wunderground v.1.15,2013-01-30 04:40:00,
2013-01-29 23:45:00,62.0,56.8,29.65,South,169,9.0,18.0,83,0.00,,,0.01,Wunderground v.1.15,2013-01-30 04:45:00,
2013-01-29 23:51:00,61.9,56.7,29.65,South,182,8.0,8.0,83,0.00,,,0.01,Wunderground v.1.15,2013-01-30 04:51:00,
2013-01-29 23:56:00,61.9,57.0,29.64,SSE,167,8.0,15.0,84,0.00,,,0.01,Wunderground v.1.15,2013-01-30 04:56:00,